STARLINK-5710 (55616 NORAD) Tracking and Keplerian Element Data

This shows tracking and keplerian element data for the satellite.

Feedback or suggestion? Click here.




ElementValue
Catalog55616
NameSTARLINK-5710
Epoch Orbit310
Epoch Day62.85411769
Epoch Year2023
RAAN237.7845
Inclination42.9991
Eccentricity0.0001925
Argument of Perigee301.8894
Mean Anonmoly58.1786
Mean Motion15.71345369
Decay Rate0.00084744
L11 55616U 23020AZ 23062.85411769 .00084744 00000+0 64338-3 0 9997
L22 55616 42.9991 237.7845 0001925 301.8894 58.1786 15.71345369 3108



Live tracking and technical data element details for STARLINK-5710 (NORAD 55616). STARLINK-5710 can be tracked NOW for your location showing map with azimuth and elevation plus other details from your city location.







IsCatalogInMostPopularTable: catalog: 55616, numindb: 3
Update: records affected: 1



GetName: 55616 STARLINK-5710

Hit Count: updated at: Wed, 22 Mar 2023 17:05:17 GMT